Temperature
20 21 21 21 21 20 20 19 19 20 19 20 19 19 19 19 20 20 20 20 20 20 21 20 20 20 20 20 20 19 19 19 19 19 18 18 18 18 18 18 17 17 17 17
20 21 21 21 21 21 21 20 20 20 19 19 19 19 19 19 19 19 20 20 20 20 20 20 20 20 20 19 19 19 19 19 19 19 18 18 18 18 18 18 17 17 17 17
19 20 20 20 20 20 20 20 20 20 20 19 18 18 19 19 19 20 20 20 20 20 20 20 20 20 19 19 19 19 19 19 19 18 18 18 18 17 17 17 17 17 17 16
17 19 20 20 20 21 20 20 19 19 19 18 19 20 20 20 21 21 20 20 20 20 20 20 20 19 19 19 18 18 18 18 18 18 18 18 17 17 17 17 17 17 16 16
15 17 19 20 20 20 20 20 19 19 19 19 19 19 19 20 21 21 21 21 20 20 20 20 20 19 19 18 18 18 18 18 18 18 18 17 17 17 17 17 17 16 16 16
15 18 18 19 20 20 20 20 19 18 18 18 18 18 19 21 20 20 20 20 20 20 19 19 19 19 18 18 18 18 18 18 17 17 17 17 17 17 16 16 16 16 16 16
15 17 17 18 19 20 20 19 19 19 18 18 18 19 21 21 20 20 20 20 19 19 19 19 19 18 18 18 18 17 17 17 17 17 17 16 16 16 16 16 16 16 16 15
14 16 17 18 18 18 18 19 19 19 19 19 19 20 20 20 20 20 20 19 19 19 19 18 18 18 18 17 17 17 17 17 16 16 16 16 16 15 15 15 15 15 15 15
14 16 16 17 17 19 19 19 19 19 19 19 19 19 19 20 20 19 19 19 19 19 18 18 18 17 17 17 17 16 16 16 16 16 16 15 15 15 15 15 15 15 15 15
13 15 16 17 18 18 19 19 19 19 19 19 19 19 19 19 19 19 19 19 18 18 18 18 17 17 17 17 16 16 16 16 16 15 15 15 15 15 15 14 14 14 14 14
14 14 15 17 17 18 18 19 18 18 19 19 19 19 19 19 19 19 18 18 18 18 18 17 17 17 16 16 16 16 15 15 15 15 15 14 14 14 14 14 14 14 14 14
14 15 14 16 17 17 18 18 18 18 18 18 18 19 19 18 18 18 18 18 18 17 17 17 16 16 16 16 15 15 15 15 14 14 14 14 14 14 14 14 14 14 13 13
16 16 16 17 17 17 17 17 18 18 17 17 18 18 18 18 18 18 18 17 17 17 16 16 16 16 16 15 15 15 15 14 14 14 14 14 14 13 13 13 13 13 13 13
16 16 15 16 16 16 17 17 17 17 17 17 17 17 17 17 17 17 17 17 17 16 16 16 15 15 15 15 15 14 14 14 14 13 13 13 13 13 13 13 13 13 13 12
16 16 16 16 16 16 16 17 17 17 16 16 16 16 17 17 17 17 16 16 16 16 15 15 15 15 15 14 14 14 14 13 13 13 13 13 13 12 12 12 12 12 12 12
15 15 15 15 15 16 16 16 16 16 16 16 16 16 16 16 16 16 16 15 15 15 15 15 15 14 14 14 14 13 13 13 13 13 12 12 12 12 12 12 12 12 12 12
14 14 14 14 15 15 15 15 15 16 15 15 15 16 16 16 15 15 15 15 15 15 15 14 14 14 14 13 13 13 13 13 12 12 12 12 12 12 12 11 11 11 11 11
15 15 15 15 15 15 15 15 15 15 15 15 15 15 15 15 15 15 14 14 14 14 14 14 14 13 13 13 13 13 12 12 12 12 12 12 11 11 11 11 11 11 11 11
14 14 14 14 14 15 14 15 15 15 15 15 14 14 15 15 15 14 14 14 14 14 13 13 13 13 13 12 12 12 12 12 12 12 11 11 11 11 11 11 11 11 11 10
14 14 14 14 14 14 14 14 14 14 14 14 14 14 14 14 14 14 13 13 13 13 13 13 13 12 12 12 12 12 12 11 11 11 11 11 11 11 11 10 10 10 10 10
14 14 14 14 14 14 14 14 14 13 14 14 14 14 14 13 13 13 13 13 13 13 13 12 12 12 12 12 12 11 11 11 11 11 11 11 10 10 10 10 10 10 10 10
13 13 14 14 14 14 14 14 13 13 13 13 14 13 13 13 13 13 13 13 13 12 12 12 12 12 11 11 11 11 11 11 11 10 10 10 10 10 10 10 10 10 10 10
13 13 13 13 13 13 13 13 13 13 13 13 13 13 13 13 12 12 12 12 12 12 12 12 11 11 11 11 11 11 10 10 10 10 10 10 10 10 9 9 9 9 9 9
13 13 13 13 13 13 13 13 13 13 12 12 12 12 12 12 12 12 12 12 11 11 11 11 11 11 11 11 10 10 10 10 10 9 9 9 9 9 9 9 9 9 9 9
12 12 12 12 12 12 12 12 12 12 12 12 12 12 12 12 12 11 11 11 11 11 11 11 11 10 10 10 10 10 10 9 9 9 9 9 9 9 9 9 9 9 9 8
12 12 12 12 12 12 12 12 12 11 11 11 11 11 11 11 11 11 11 10 10 10 10 10 10 10 10 10 10 10 10 9 9 9 9 9 9 9 9 9 8 8 8 8
12 12 12 12 12 12 12 12 11 11 11 11 11 11 10 10 10 10 10 10 10 10 10 10 10 10 10 10 10 9 9 9 9 9 9 9 8 8 8 8 8 8 8 8
Wind_Speed
5 4 4 4 4 6 6 8 9 8 8 9 8 7 5 4 3 2 2 1 1 1 1 1 1 0 1 1 1 2 3 3 4 4 4 4 4 5 5 4 4 3 3 3
2 2 3 3 5 7 6 5 6 4 7 7 4 3 4 5 5 4 4 3 2 2 1 2 1 1 1 1 1 2 2 2 2 2 3 4 5 5 5 4 4 3 3 3
3 2 2 4 8 8 5 5 7 8 9 3 3 7 8 8 8 7 6 5 4 4 3 3 2 2 2 1 1 2 2 1 2 2 3 3 4 4 5 5 4 4 4 3
3 3 5 9 4 6 6 5 5 5 4 5 7 5 4 6 8 7 6 6 5 4 3 3 2 2 1 2 2 2 1 1 1 1 2 2 2 4 4 3 4 4 4 4
4 4 5 6 2 4 5 4 4 4 3 2 2 3 2 4 6 7 6 6 5 4 3 3 3 3 3 2 2 2 1 1 2 2 2 3 3 3 3 3 4 4 4 4
4 5 7 7 4 2 4 3 3 3 3 2 4 2 6 5 4 4 3 3 3 3 2 3 3 3 3 2 2 2 3 3 2 2 3 4 4 3 2 3 4 4 3 4
4 4 6 5 4 3 5 6 4 3 4 6 6 6 4 3 3 3 3 3 4 4 3 3 3 4 3 2 3 3 2 2 2 2 3 3 3 3 3 3 3 3 3 3
4 3 6 3 2 4 5 4 2 3 4 5 4 1 1 2 3 4 4 4 4 4 2 2 3 4 4 3 3 2 1 1 2 2 2 2 2 2 2 3 3 3 3 3
6 6 4 2 3 3 2 3 3 3 3 4 3 2 2 2 3 4 4 4 3 4 3 1 2 3 4 4 2 1 1 1 1 1 1 1 2 2 2 3 3 3 3 4
2 4 4 4 3 3 2 2 4 3 2 3 3 3 3 3 3 3 3 4 4 4 3 2 2 3 3 3 3 3 2 2 1 1 1 1 1 1 2 2 3 3 4 4
3 4 4 4 4 4 4 4 4 3 1 2 4 3 3 4 4 4 3 2 4 4 4 4 3 2 2 2 3 3 2 2 1 1 2 1 1 1 2 3 3 4 4 4
5 5 4 5 5 3 3 4 3 3 3 3 1 3 4 4 3 3 3 3 3 3 3 3 3 3 2 3 3 3 2 1 1 1 1 1 1 1 2 1 1 3 4 4
5 3 4 4 3 2 2 3 3 1 1 1 1 1 3 2 2 2 3 3 4 4 4 3 3 3 2 2 2 3 3 2 1 1 1 2 1 1 1 2 3 2 2 2
4 1 1 2 2 3 2 3 3 3 3 2 2 2 3 3 2 2 2 3 3 3 3 3 3 3 2 2 2 2 2 2 2 2 2 2 2 2 2 1 1 2 2 3
4 2 3 2 2 3 3 3 4 4 4 4 2 2 3 3 2 2 1 1 2 2 1 2 2 2 2 3 3 3 2 2 2 1 1 1 1 1 1 2 1 1 1 2
2 1 1 1 0 1 2 2 2 2 2 3 2 0 2 2 2 1 1 2 3 2 2 2 3 3 2 3 3 2 2 2 2 1 1 1 1 1 1 1 1 1 1 1
1 1 1 1 1 1 1 2 2 2 2 3 2 0 2 3 2 1 1 0 1 2 2 2 3 2 2 2 3 2 2 2 2 1 2 2 2 2 2 2 2 2 2 2
5 6 5 5 4 2 2 2 2 2 2 3 2 0 2 3 2 1 1 1 2 2 2 2 2 1 2 2 2 2 2 2 2 2 2 2 2 2 2 2 2 2 2 1
3 3 3 3 3 3 2 2 2 2 2 1 0 1 2 2 2 1 1 1 1 2 3 2 1 0 1 2 2 2 2 2 2 2 2 2 2 1 2 2 2 2 2 1
1 1 1 1 1 1 2 2 1 1 1 1 1 0 0 1 2 2 1 1 3 3 2 2 1 1 1 1 1 1 2 2 2 2 2 2 2 1 2 2 2 2 2 2
1 0 1 1 0 0 1 2 1 1 1 1 1 2 2 2 1 2 2 2 3 2 1 2 1 1 1 0 1 1 2 2 2 2 2 2 2 2 1 1 2 2 2 2
0 1 1 1 0 0 1 1 2 2 1 0 0 1 1 1 1 1 2 3 2 2 1 1 1 1 1 0 0 1 1 2 1 1 2 2 2 2 2 2 2 2 2 2
0 1 1 0 1 1 1 1 1 1 1 1 1 1 1 1 1 1 2 2 1 1 0 1 1 1 0 0 0 0 1 1 1 1 1 2 2 2 2 2 2 2 2 2
1 1 1 1 2 2 2 1 1 1 1 1 1 1 1 0 1 1 2 2 0 0 0 1 0 0 0 0 1 1 0 1 1 1 1 2 2 2 2 2 2 2 2 2
1 1 1 2 2 1 1 1 2 2 3 2 2 2 1 1 1 1 1 1 0 1 0 1 0 1 1 0 1 1 2 2 2 1 1 1 1 2 2 2 2 2 2 2
0 0 0 1 1 1 1 1 1 1 1 2 2 2 1 1 1 1 1 1 1 1 1 1 1 1 1 1 1 2 2 2 2 2 2 2 2 2 2 2 2 2 2 3
1 1 1 1 1 0 1 1 1 1 1 1 0 1 1 1 1 1 1 1 1 1 1 1 1 1 1 1 1 2 2 2 2 2 2 2 2 2 2 3 2 2 3 3
Wind_Direction
226 218 177 201 206 185 181 186 186 220 225 246 232 219 210 198 180 156 156 170 192 206 251 309 27 86 138 159 164 169 172 186 204 206 205 201 197 196 192 195 212 211 204 211
255 228 189 223 227 201 206 195 203 215 249 246 227 184 182 187 183 190 202 211 222 225 229 231 203 196 187 190 161 137 153 189 191 181 191 202 205 197 188 186 192 191 197 208
228 284 76 254 231 202 200 203 181 206 232 208 194 202 200 195 194 202 212 214 214 218 220 223 209 185 179 184 143 141 156 165 165 170 185 210 210 195 194 189 184 190 199 205
159 111 214 241 239 192 192 212 200 211 223 204 216 216 205 196 196 206 211 211 211 212 211 204 175 150 132 145 154 156 159 171 175 168 183 194 189 194 196 189 190 202 212 218
143 180 252 288 247 179 180 236 220 210 238 215 115 67 282 226 203 204 207 208 204 202 198 181 177 166 145 152 165 167 193 225 233 208 189 189 198 205 203 196 205 213 212 216
141 164 217 244 267 232 133 257 264 208 210 179 121 169 252 228 199 198 196 186 176 170 164 172 184 163 151 175 186 212 225 233 230 218 203 207 215 214 208 203 213 217 224 225
169 201 247 264 294 112 155 240 265 218 206 187 197 218 221 177 186 186 178 171 160 156 164 181 170 157 160 181 220 246 249 245 240 228 220 221 226 217 197 197 202 207 217 237
158 183 249 291 97 159 224 271 251 220 219 205 216 235 163 164 175 170 165 167 163 156 163 166 166 161 171 210 229 218 202 233 247 243 234 218 203 213 197 188 199 214 218 239
189 209 243 247 218 249 227 249 252 225 242 205 188 198 185 183 179 173 169 172 166 158 152 177 185 171 191 221 209 188 167 235 264 270 275 214 197 204 203 195 205 218 217 230
242 266 281 286 297 311 298 282 280 253 233 193 179 181 175 177 175 168 167 162 158 153 164 201 217 207 211 207 183 173 192 232 243 223 264 277 239 223 218 220 220 226 229 232
248 283 319 310 309 317 337 352 352 350 345 208 166 173 181 178 177 174 167 165 163 167 182 208 215 219 217 194 175 181 201 220 233 226 215 235 252 251 237 232 223 222 227 223
223 227 210 262 292 317 352 355 2 22 9 8 151 175 171 169 175 166 158 151 157 169 182 205 214 221 214 192 180 177 197 226 225 231 233 217 218 309 349 294 270 235 232 224
229 240 221 260 295 323 353 350 357 31 50 359 11 133 143 139 155 149 151 166 182 190 195 203 210 227 231 202 178 178 196 218 231 231 230 226 220 213 287 357 31 31 347 274
241 227 279 285 294 319 355 1 21 28 18 17 35 80 103 101 117 134 167 190 189 190 202 201 196 220 226 191 179 189 197 211 226 238 235 231 225 219 208 206 293 335 352 330
271 236 222 259 314 354 10 28 39 24 15 15 39 91 116 130 153 177 197 152 136 153 197 196 198 239 221 182 179 191 203 219 225 235 234 233 230 219 210 205 219 268 328 342
296 345 111 124 314 8 11 13 13 346 348 344 347 28 148 144 143 139 143 143 141 196 231 223 233 248 218 186 185 201 215 214 196 207 223 220 213 213 219 219 222 233 243 267
186 199 181 206 245 293 306 290 288 294 304 303 291 245 122 108 91 59 2 197 186 216 227 225 245 257 222 195 189 199 201 202 193 201 226 228 224 225 229 236 243 244 250 241
212 214 210 201 203 229 283 303 314 311 295 283 288 127 141 150 170 207 256 30 36 360 315 280 266 259 227 207 194 194 193 200 206 217 236 240 238 233 229 233 240 249 270 275
224 218 223 217 210 199 223 254 285 300 308 303 278 230 197 194 199 202 154 110 170 263 285 296 297 301 266 243 206 194 194 200 211 218 222 234 242 246 230 228 237 246 255 260
244 193 192 226 216 171 211 241 261 299 304 170 163 187 183 240 199 167 150 247 250 247 259 269 257 245 253 252 224 199 197 202 214 219 211 213 218 232 237 230 229 236 238 237
353 279 237 220 251 240 203 192 192 236 263 183 175 206 207 226 206 156 174 260 281 273 250 239 248 271 279 250 210 196 195 200 208 212 210 212 212 210 224 237 242 240 242 244
282 217 237 236 148 299 280 219 179 169 228 255 176 142 138 177 195 208 231 235 253 254 235 231 257 246 241 197 180 189 193 195 195 191 194 201 208 217 228 241 255 254 246 245
244 168 164 197 192 193 37 59 126 151 186 204 151 135 163 219 208 190 272 279 255 212 192 236 235 213 196 151 151 152 174 171 177 191 205 219 223 222 227 231 239 246 244 243
102 115 118 112 107 97 66 11 12 62 90 76 111 154 148 126 344 309 272 280 281 144 184 234 178 4 55 151 171 182 203 196 202 223 231 235 235 228 226 221 222 235 245 250
161 133 113 105 101 125 149 76 53 58 58 48 31 15 17 154 183 276 303 317 38 80 345 347 30 275 270 234 226 233 231 231 233 225 226 231 241 240 237 235 228 232 252 261
117 134 210 210 187 195 161 123 111 86 76 55 21 4 13 24 27 336 329 335 6 19 345 331 316 305 292 265 248 249 248 245 241 241 236 234 237 242 252 260 258 251 257 263
54 71 73 32 10 42 119 125 126 113 119 139 319 323 343 5 354 327 320 338 345 339 329 324 315 294 280 278 284 280 269 253 236 225 228 236 243 250 258 262 259 258 262 266
Height
1486 1482 1484 1486 1487 1490 1493 1497 1503 1498 1495 1485 1481 1480 1481 1482 1484 1486 1487 1488 1489 1490 1491 1492 1492 1493 1494 1494 1495 1496 1497 1498 1499 1501 1503 1504 1505 1506 1507 1509 1510 1510 1511 1512
1486 1482 1483 1485 1483 1485 1486 1487 1489 1489 1488 1477 1477 1479 1480 1481 1482 1484 1485 1487 1488 1489 1490 1490 1491 1491 1492 1493 1493 1494 1494 1495 1496 1498 1499 1500 1501 1502 1503 1504 1505 1507 1507 1508
1495 1486 1485 1492 1482 1481 1482 1480 1482 1486 1480 1475 1477 1476 1476 1478 1480 1481 1483 1485 1486 1487 1488 1489 1489 1490 1490 1492 1492 1492 1492 1493 1494 1494 1495 1496 1497 1498 1499 1500 1501 1502 1503 1504
1497 1493 1501 1484 1470 1471 1474 1474 1474 1473 1472 1472 1472 1472 1473 1475 1476 1478 1480 1482 1484 1485 1486 1487 1487 1489 1489 1490 1490 1490 1490 1491 1491 1491 1492 1493 1493 1494 1495 1497 1498 1499 1500 1500
1500 1500 1492 1478 1470 1470 1473 1475 1470 1470 1470 1470 1471 1472 1473 1473 1474 1476 1478 1479 1481 1483 1484 1485 1486 1486 1487 1487 1488 1488 1488 1488 1489 1489 1489 1490 1490 1491 1492 1493 1494 1495 1496 1497
1497 1496 1497 1478 1465 1464 1469 1476 1467 1467 1468 1469 1470 1476 1472 1470 1472 1474 1476 1478 1479 1481 1482 1483 1484 1485 1485 1485 1485 1485 1486 1486 1487 1487 1487 1487 1488 1489 1489 1490 1491 1492 1493 1493
1493 1491 1484 1469 1464 1464 1479 1477 1465 1464 1465 1466 1467 1467 1466 1468 1469 1472 1474 1476 1478 1479 1480 1481 1482 1482 1483 1483 1483 1484 1484 1484 1484 1484 1484 1485 1486 1486 1486 1487 1488 1488 1489 1490
1492 1491 1485 1466 1465 1469 1470 1464 1463 1462 1463 1463 1463 1464 1464 1465 1467 1469 1471 1473 1475 1476 1477 1479 1479 1480 1480 1481 1482 1482 1482 1482 1482 1482 1482 1482 1483 1483 1483 1484 1484 1485 1485 1485
1480 1478 1468 1465 1464 1464 1464 1462 1461 1461 1460 1461 1461 1462 1462 1464 1465 1467 1469 1471 1472 1474 1475 1477 1478 1478 1478 1479 1480 1480 1480 1480 1480 1480 1480 1480 1480 1480 1481 1481 1481 1481 1481 1480
1473 1468 1465 1464 1463 1462 1461 1460 1459 1459 1458 1458 1459 1460 1461 1462 1464 1465 1466 1468 1470 1471 1472 1474 1475 1476 1477 1477 1477 1478 1477 1477 1477 1477 1477 1477 1477 1478 1478 1477 1477 1477 1477 1477
1471 1466 1463 1462 1461 1460 1459 1458 1457 1456 1456 1457 1457 1458 1459 1460 1461 1463 1464 1466 1467 1469 1470 1472 1473 1474 1474 1474 1475 1475 1475 1475 1475 1475 1474 1474 1474 1474 1474 1474 1474 1474 1474 1474
1468 1463 1464 1461 1460 1459 1458 1457 1456 1455 1455 1456 1456 1456 1457 1459 1460 1461 1462 1464 1465 1467 1468 1469 1470 1471 1472 1472 1472 1472 1472 1472 1472 1472 1472 1471 1471 1471 1471 1471 1471 1470 1470 1470
1461 1460 1460 1460 1459 1459 1458 1457 1456 1456 1455 1455 1456 1456 1456 1457 1459 1460 1461 1462 1464 1464 1466 1467 1468 1468 1469 1469 1469 1469 1469 1469 1469 1469 1469 1468 1468 1468 1468 1468 1468 1467 1467 1467
1458 1458 1458 1458 1458 1458 1458 1457 1457 1456 1456 1455 1455 1456 1456 1457 1458 1459 1460 1461 1462 1463 1464 1465 1465 1466 1466 1467 1467 1467 1467 1466 1466 1466 1466 1466 1465 1465 1465 1465 1465 1464 1464 1465
1456 1457 1457 1456 1457 1457 1457 1457 1456 1455 1455 1455 1455 1456 1455 1457 1457 1458 1459 1460 1461 1461 1462 1462 1462 1463 1464 1464 1464 1464 1464 1464 1464 1463 1463 1463 1463 1463 1462 1462 1462 1461 1461 1461
1455 1455 1455 1455 1455 1456 1457 1457 1456 1455 1455 1455 1455 1455 1455 1456 1457 1458 1458 1459 1459 1459 1460 1460 1460 1461 1461 1462 1462 1461 1461 1461 1461 1461 1460 1460 1460 1460 1459 1459 1459 1459 1459 1459
1453 1453 1453 1454 1454 1455 1456 1456 1456 1455 1455 1455 1454 1454 1454 1455 1456 1457 1457 1457 1458 1458 1458 1458 1458 1459 1459 1459 1459 1458 1458 1458 1458 1458 1457 1457 1457 1456 1456 1456 1456 1456 1456 1456
1451 1451 1452 1452 1452 1453 1454 1455 1455 1454 1454 1454 1454 1453 1453 1454 1454 1455 1455 1456 1456 1457 1456 1456 1456 1456 1456 1456 1456 1455 1455 1455 1455 1454 1454 1454 1454 1454 1454 1453 1453 1453 1453 1453
1448 1449 1450 1451 1451 1451 1452 1453 1453 1453 1453 1452 1452 1452 1453 1453 1453 1454 1454 1454 1454 1454 1454 1454 1453 1453 1453 1453 1453 1453 1452 1452 1452 1452 1452 1452 1452 1452 1451 1451 1451 1451 1451 1451
1447 1447 1448 1449 1449 1449 1450 1450 1451 1451 1451 1452 1452 1451 1452 1452 1453 1453 1453 1453 1453 1453 1453 1452 1451 1451 1450 1450 1450 1450 1449 1449 1449 1449 1449 1449 1449 1449 1449 1449 1449 1449 1449 1449
1445 1446 1446 1447 1447 1448 1448 1449 1450 1449 1450 1450 1450 1450 1450 1451 1451 1451 1451 1451 1451 1451 1451 1450 1450 1449 1448 1448 1447 1447 1446 1446 1446 1446 1446 1446 1447 1447 1447 1447 1447 1447 1447 1447
1444 1444 1445 1445 1446 1446 1447 1448 1448 1448 1449 1449 1449 1449 1449 1450 1450 1449 1450 1449 1449 1449 1449 1448 1448 1448 1447 1446 1445 1444 1443 1443 1443 1443 1444 1444 1444 1444 1445 1445 1445 1445 1445 1445
1443 1443 1444 1444 1444 1445 1446 1446 1447 1447 1447 1447 1447 1447 1447 1448 1448 1447 1447 1447 1447 1447 1447 1447 1446 1446 1445 1444 1443 1442 1441 1441 1441 1441 1441 1442 1442 1442 1442 1442 1442 1442 1442 1442
1442 1443 1443 1443 1444 1445 1445 1445 1445 1446 1446 1446 1446 1447 1447 1447 1446 1446 1446 1446 1445 1445 1445 1445 1444 1444 1443 1442 1441 1441 1440 1440 1440 1440 1440 1440 1440 1440 1440 1440 1440 1440 1440 1440
1442 1442 1443 1443 1444 1444 1444 1444 1445 1445 1445 1445 1445 1446 1446 1446 1445 1445 1445 1445 1444 1444 1443 1443 1442 1442 1441 1441 1440 1440 1439 1439 1439 1438 1438 1438 1437 1437 1437 1437 1437 1437 1437 1437
1441 1442 1442 1443 1444 1444 1444 1444 1444 1444 1444 1444 1444 1445 1444 1444 1444 1444 1444 1444 1443 1442 1442 1441 1441 1440 1440 1439 1439 1438 1438 1437 1437 1436 1436 1436 1436 1435 1435 1435 1435 1434 1434 1433
1441 1441 1442 1443 1443 1444 1444 1444 1444 1443 1444 1444 1444 1444 1443 1443 1443 1443 1443 1442 1442 1441 1440 1439 1439 1439 1438 1438 1437 1437 1436 1435 1435 1435 1434 1434 1433 1433 1433 1432 1432 1431 1430 1429